Location: Ramsey Saint Marys
(52.4667°N, 0.1500°W)
Time: 14:13:35
(UTC+00:00)

Daily predictions for brighter satellites

Satellite Brightness Start Highest point End
(mag) Time Altitude Azimuth Time Altitude Azimuth Time Altitude Azimuth
Cosmos 1802 Rocket 4.2 21:07:38 10° N 21:14:05 68° ENE 21:20:27 10° SSE
IRS-1C Rocket 4.2 21:10:10 10° SSE 21:15:26 83° WSW 21:20:44 10° NNW
Spot 2 Rocket 3.8 21:10:50 10° S 21:15:52 67° WSW 21:20:58 10° NNW
Okean-O 3.9 21:13:34 10° SSW 21:17:40 38° W 21:21:48 10° NNW
SL-16 R/B 2.3 21:15:53 10° NNW 21:21:36 85° ENE 21:27:16 10° SSE
ERS-1 Rocket 4.3 21:18:33 10° SSW 21:23:11 37° W 21:27:50 10° NNW
Cosmos 2084 Rocket 3.7 21:19:14 10° NW 21:23:20 57° SW 21:27:22 10° SSE
Meteor 1-13 Rocket 4.4 21:17:52 10° S 21:23:46 72° E 21:29:36 10° NNE
USA 290 3.9 21:24:26 10° SE 21:26:37 17° ESE 21:28:49 10° ENE
Helios 1A 3.8 21:23:18 10° N 21:27:10 51° WNW 21:30:59 10° SW
Cosmos 1328 Rocket 4.1 21:23:03 10° SSW 21:27:24 61° WNW 21:31:47 10° N
Cosmos 2227 Rocket 2.2 21:22:50 10° SSW 21:28:26 71° ESE 21:34:06 10° NE
Cosmos 2344 4.2 21:21:42 10° NW 21:29:18 65° NE 21:39:14 10° ESE
Cosmos 1455 3.4 21:27:03 10° NW 21:29:21 24° W 21:31:38 10° SSW
Cosmos 2016 Rocket 4.1 21:24:08 10° N 21:30:29 74° ENE 21:36:51 10° SSE
Cosmos 2263 Rocket 2.7 21:26:01 10° S 21:31:19 42° ESE 21:36:39 10° NE
Cosmos 1437 Rocket 2.6 21:29:26 10° S 21:32:54 58° E 21:36:28 10° NNE
Meteor 1-23 Rocket 4.4 21:27:35 10° S 21:33:00 54° E 21:38:28 10° NNE
NOSS 3 (A) 4.1 21:31:30 10° NW 21:33:51 89° SW 21:36:46 11° SE
Cosmos 1470 Rocket 4.1 21:30:10 10° NNW 21:34:25 56° W 21:38:40 10° S
RESURS DK-1 2.4 21:30:56 10° SSW 21:34:49 53° ESE 21:38:45 10° NE
GP-B 3.6 21:33:47 10° NNE 21:38:00 44° E 21:42:07 10° SSE
Cosmos 1943 3.8 21:36:20 10° NNW 21:41:56 52° NE 21:47:29 10° SE
Cosmos 1933 Rocket 3.6 21:41:09 10° NNW 21:45:34 86° WSW 21:49:55 10° S
COSMOS 2455 4.2 21:42:46 10° NW 21:47:55 30° WSW 21:53:03 10° S
NOSS 3-1 (C) 4.2 21:42:12 10° NW 21:48:54 71° NE 21:57:20 10° ESE
Cosmos 1140 Rocket 4.3 21:44:58 10° SSE 21:49:31 33° ESE 21:54:04 10° NE
Okean 3 4.5 21:49:00 12° SSE 21:52:13 30° E 21:55:48 10° NNE
SL-4 R/B 3.2 21:50:51 10° SSW 21:53:58 21° SE 21:57:02 10° E
Cosmos 2219 3.4 21:49:47 10° S 21:55:20 54° ESE 22:00:57 10° NE
Cosmos 1515 Rocket 3.9 21:51:07 10° SSW 21:55:32 71° WNW 22:00:00 10° N
Cosmos 1733 Rocket 4.0 21:51:34 10° N 21:55:39 36° ENE 21:59:17 12° SE
Cosmos 2292 Rocket 4.3 21:56:22 13° SE 21:58:01 19° E 22:00:13 10° NE
USA 59 Rocket 1.5 21:55:39 10° NNW 21:58:23 25° NNE 22:01:37 10° E
Cosmos 1869 Rocket 3.5 21:55:32 10° N 21:59:58 89° E 22:03:55 12° S
Cosmos 1703 4.5 21:59:19 13° SE 22:01:31 23° E 22:04:19 10° NE
ALOS 2 4.5 21:58:43 10° ESE 22:02:01 21° ENE 22:05:19 10° N
Cosmos 2082 4.0 21:58:37 10° S 22:04:04 49° ESE 22:09:35 10° NE
Cosmos 1953 2.1 22:02:09 10° N 22:05:56 90° SE 22:09:05 14° S
Cosmos 2233 Rocket 4.1 22:01:19 10° N 22:07:41 87° W 22:13:41 12° S
NOSS 3-4 (A) 4.1 22:02:43 10° WSW 22:08:07 56° NNW 22:14:14 10° NE
NOSS 3-4 (C) 4.1 22:02:48 10° WSW 22:08:13 57° NNW 22:14:20 10° NE
Cosmos 2237 Rocket 4.4 22:05:46 10° WNW 22:09:15 17° W 22:12:43 10° SW
Cosmos 407 Rocket 4.4 22:11:56 14° SSE 22:15:33 31° ESE 22:20:01 10° NE
SWAS 4.4 22:12:05 10° NNW 22:16:10 72° NE 22:19:28 15° SE
Cosmos 1818 4.1 22:11:08 10° WSW 22:16:32 63° NW 22:21:59 10° NE
Ariane Rocket 4.2 22:12:11 10° SSW 22:16:50 36° W 22:21:30 10° NNW
Terra 4.3 22:17:03 10° WSW 22:19:30 14° W 22:21:59 10° NW
ATLAS 3B R/B 4.3 22:14:10 10° NW 22:21:34 41° NNE 22:28:54 10° E
ATLAS CENTAUR R/B 3.7 22:21:39 10° W 22:22:21 10° WSW 22:23:03 10° WSW
CZ-4C R/B 3.5 22:22:01 10° NNE 22:25:07 38° E 22:27:02 19° SSE
Cosmos 540 Rocket 3.9 22:20:54 10° NNW 22:25:57 56° ENE 22:30:18 14° SE
IRIDIUM 104 4.5 22:22:10 15° SSE 22:26:30 63° E 22:31:40 10° N
Okean 1-7 4.1 22:24:54 15° SE 22:27:28 28° E 22:31:03 10° NNE
USA 305 2.2 22:24:19 10° WSW 22:28:05 85° NNW 22:31:04 10° ENE
Cosmos 1862 Rocket 4.1 22:26:30 16° SSE 22:29:40 44° E 22:33:51 10° NNE
Lacrosse 4 Rocket 3.8 22:27:47 10° WNW 22:30:04 14° WSW 22:32:23 10° SW
Cosmos 1269 Rocket 4.0 22:26:03 10° SSW 22:31:20 90° ESE 22:36:40 10° NNE
IRIDIUM 114 4.4 22:31:17 15° S 22:35:38 74° E 22:40:52 10° N
Meteor 2-16 Rocket 4.5 22:29:54 10° SSW 22:36:00 85° W 22:42:08 10° N
NOSS 3-1 (A) 4.2 22:31:13 10° NW 22:37:59 71° NE 22:46:21 10° SE
MetOp-A 3.8 22:36:44 17° SSE 22:40:23 75° ENE 22:44:50 10° NNW
Cosmos 1844 Rocket 3.6 22:37:08 16° SSE 22:40:46 32° ESE 22:45:46 10° NE
Cosmos 468 Rocket 4.4 22:36:25 10° NNW 22:41:30 55° ENE 22:45:48 14° SE
Aureole 3 Rocket 2.8 22:38:28 10° N 22:41:34 53° ENE 22:43:51 20° SSE
ATLAS 2AS CENTAUR R/B 4.2 22:40:58 14° SE 22:44:24 19° ESE 22:49:04 10° ENE
Cosmos 2297 Rocket 4.5 22:39:44 10° W 22:44:29 27° NW 22:49:16 10° NNE
IRIDIUM 103 4.3 22:40:25 15° S 22:44:47 87° E 22:50:02 10° N
ARIANE 5 R/B 2.7 22:41:46 18° SSE 22:45:01 78° ENE 22:49:32 10° NNW
ASTEX 1 3.4 22:43:52 10° N 22:48:51 76° E 22:52:38 17° S
SJ 16-02 3.5 22:47:38 10° ESE 22:49:17 12° E 22:50:56 10° ENE
NOSS 2-1 (D) 3.9 22:46:34 10° NW 22:49:46 48° NE 22:53:49 10° ESE
SeaSat 1 3.4 22:52:45 10° ESE 22:57:22 43° NE 23:01:59 10° NNW
USA 290 3.6 22:57:43 10° SW 23:00:44 38° WNW 23:03:47 10° NNE
SL-16 R/B 4.0 23:01:00 10° NW 23:05:01 20° W 23:08:59 10° SW
Landsat 5 3.7 23:01:59 10° NNE 23:06:13 57° E 23:08:50 21° S
Cosmos 1072 Rocket 4.5 23:00:23 10° N 23:06:35 89° E 23:11:12 19° S
Cosmos 1763 Rocket 3.6 23:02:24 10° NNW 23:07:31 62° WSW 23:11:00 20° S
Cosmos 2227 Rocket 4.1 23:08:02 10° WSW 23:13:00 30° NW 23:17:59 10° NNE
Cosmos 2263 Rocket 3.3 23:09:47 10° WSW 23:15:13 46° NW 23:20:43 10° NNE
Cosmos 1703 Rocket 4.1 23:14:37 21° SSE 23:17:08 43° E 23:21:13 10° NNE
OPS 6432 4.2 23:14:01 10° NW 23:17:23 80° SW 23:19:11 24° SE
Okean 2 4.5 23:14:01 11° SW 23:17:34 37° WNW 23:21:15 10° N
Cosmos 1892 2.6 23:16:18 21° SSW 23:18:05 53° WNW 23:21:02 10° N
NOSS 2-1 (C) 3.2 23:14:56 10° NW 23:18:16 76° NE 23:21:55 14° SE
Cosmos 2228 Rocket 3.3 23:14:58 17° SSW 23:18:22 71° WNW 23:22:48 10° N
Spot 4 3.9 23:15:15 20° S 23:18:32 74° WSW 23:23:24 10° NNW
Cosmos 1833 Rocket 4.0 23:14:36 10° NNW 23:19:48 36° NE 23:24:57 10° ESE
Cosmos 1271 Rocket 2.9 23:17:59 25° SSE 23:19:48 51° E 23:23:21 10° NNE
Cosmos 1707 Rocket 4.0 23:19:50 15° SSW 23:23:13 57° WNW 23:27:29 10° N
NOSS 2-1 (E) 3.3 23:19:58 10° NW 23:23:21 75° NE 23:27:08 13° SE
Cosmos 1943 4.1 23:20:39 10° NW 23:25:48 36° WSW 23:29:29 17° SSW
Meteor 2-5 Rocket 4.5 23:21:54 18° SSE 23:25:55 44° E 23:31:31 10° NNE
USA 307 3.2 23:24:56 25° S 23:26:15 33° SE 23:29:50 10° E
Cosmos 1140 Rocket 4.4 23:26:09 10° SW 23:31:06 46° WNW 23:36:02 10° NNE
SL-4 R/B 1.9 23:27:25 10° WSW 23:31:28 57° SSE 23:35:22 10° E
Cosmos 1733 Rocket 4.5 23:29:25 10° NNW 23:33:13 29° W 23:36:14 14° SW
ALOS 2 2.8 23:35:17 22° S 23:37:59 61° WSW 23:42:22 10° NNW
Cosmos 2344 4.4 23:36:01 10° NW 23:43:45 48° WSW 23:51:44 17° S
Tsikada Rocket 4.3 23:39:32 19° SSE 23:43:55 59° E 23:50:06 10° NNE
Cosmos 1603 4.2 23:39:27 10° NW 23:44:47 45° WSW 23:48:17 20° S
USA 59 Rocket -0.2 23:44:05 10° NW 23:47:31 61° SW 23:50:22 20° SSE
Cosmos 676 Rocket 4.2 23:47:16 21° S 23:50:39 57° ESE 23:55:47 10° NNE
Cosmos 2082 Rocket 4.5 23:47:03 10° NNW 23:51:33 23° NE 23:56:03 10° E
Cosmos 1908 Rocket 4.0 23:50:30 10° NNW 23:54:44 51° W 23:57:19 22° SSW
USA 305 2.6 23:53:30 10° W 23:56:47 53° N 23:59:11 10° E
OPS 8737 4.2 23:53:54 10° NW 23:56:58 71° NE 23:59:08 17° SE
